| time (UTC) | temp C | wind direction | speed KPH | gust KPH | rain 1hr cm | rain 24hr cm | rain mn cm | humidity % | barometer mb |
| 20260505191957 | 12 | 13 | 3.2 | 4.8 | 0.23 | 0.76 | 1.09 | 76 | 1002.5 |
| 20260505191758 | 12 | 16 | 1.6 | 4.8 | 0.28 | 0.76 | 1.09 | 76 | 1002.5 |
| 20260505191657 | 12 | 19 | 1.6 | 4.8 | 0.28 | 0.76 | 1.09 | 76 | 1002.5 |
| 20260505191557 | 12 | 19 | 1.6 | 4.8 | 0.28 | 0.76 | 1.09 | 76 | 1002.6 |
| 20260505191457 | 12 | 15 | 3.2 | 4.8 | 0.28 | 0.76 | 1.09 | 76 | 1002.6 |
| 20260505191357 | 12 | 10 | 1.6 | 4.8 | 0.28 | 0.76 | 1.09 | 76 | 1002.6 |
| 20260505191258 | 12 | 10 | 3.2 | 4.8 | 0.28 | 0.76 | 1.09 | 76 | 1002.7 |
| 20260505191157 | 12 | 19 | 1.6 | 4.8 | 0.28 | 0.71 | 1.04 | 76 | 1002.6 |
| 20260505190957 | 12 | 48 | 3.2 | 6.4 | 0.28 | 0.71 | 1.04 | 76 | 1002.7 |
| 20260505190858 | 12 | 51 | 0.0 | 6.4 | 0.28 | 0.71 | 1.04 | 76 | 1002.7 |
| 20260505190757 | 12 | 42 | 0.0 | 6.4 | 0.28 | 0.71 | 1.04 | 76 | 1002.5 |
| 20260505190657 | 12 | 36 | 0.0 | 6.4 | 0.30 | 0.71 | 1.04 | 76 | 1002.7 |
| 20260505190558 | 12 | 39 | 1.6 | 6.4 | 0.28 | 0.69 | 1.02 | 76 | 1002.5 |
| 20260505190458 | 12 | 40 | 1.6 | 6.4 | 0.28 | 0.69 | 1.02 | 76 | 1002.7 |
| 20260505190358 | 12 | 34 | 1.6 | 6.4 | 0.28 | 0.69 | 1.02 | 76 | 1002.6 |
| 20260505190257 | 12 | 27 | 1.6 | 6.4 | 0.28 | 0.69 | 1.02 | 76 | 1002.6 |
| 20260505190057 | 12 | 21 | 3.2 | 4.8 | 0.23 | 0.66 | 0.99 | 76 | 1002.6 |
| 20260505185857 | 12 | 18 | 3.2 | 4.8 | 0.23 | 0.66 | 0.99 | 76 | 1002.7 |
| 20260505185657 | 12 | 36 | 1.6 | 6.4 | 0.23 | 0.66 | 0.99 | 76 | 1002.7 |
| 20260505185557 | 12 | 34 | 1.6 | 6.4 | 0.23 | 0.66 | 0.99 | 76 | 1002.5 |
| 20260505185357 | 12 | 44 | 3.2 | 6.4 | 0.23 | 0.66 | 0.99 | 76 | 1002.6 |
| 20260505185257 | 12 | 50 | 3.2 | 6.4 | 0.28 | 0.66 | 0.99 | 76 | 1002.6 |
| 20260505185057 | 12 | 41 | 3.2 | 6.4 | 0.28 | 0.66 | 0.99 | 75 | 1002.5 |
| 20260505184756 | 12 | 27 | 6.4 | 6.4 | 0.23 | 0.64 | 0.97 | 75 | 1002.5 |
| 20260505184557 | 12 | 5 | 1.6 | 6.4 | 0.23 | 0.64 | 0.97 | 75 | 1002.6 |
| 20260505184457 | 12 | 1 | 3.2 | 6.4 | 0.20 | 0.61 | 0.94 | 75 | 1002.6 |
| 20260505184357 | 12 | 356 | 3.2 | 6.4 | 0.23 | 0.61 | 0.94 | 75 | 1002.5 |
| 20260505184256 | 12 | 355 | 3.2 | 6.4 | 0.23 | 0.61 | 0.94 | 75 | 1002.5 |
| 20260505184157 | 12 | 347 | 3.2 | 6.4 | 0.23 | 0.61 | 0.94 | 75 | 1002.6 |
| 20260505184057 | 12 | 348 | 3.2 | 6.4 | 0.23 | 0.61 | 0.94 | 75 | 1002.5 |
| 20260505183957 | 12 | 349 | 3.2 | 6.4 | 0.23 | 0.61 | 0.94 | 75 | 1002.6 |
| 20260505183857 | 12 | 346 | 1.6 | 6.4 | 0.23 | 0.61 | 0.94 | 75 | 1002.4 |
| 20260505183656 | 12 | 336 | 1.6 | 6.4 | 0.23 | 0.61 | 0.94 | 75 | 1002.5 |
| 20260505183556 | 12 | 342 | 0.0 | 6.4 | 0.23 | 0.61 | 0.94 | 75 | 1002.4 |
| 20260505183357 | 12 | 337 | 1.6 | 6.4 | 0.20 | 0.56 | 0.89 | 75 | 1002.5 |
| 20260505183156 | 12 | 317 | 1.6 | 6.4 | 0.20 | 0.56 | 0.89 | 75 | 1002.5 |
| 20260505183057 | 12 | 331 | 3.2 | 8.0 | 0.20 | 0.56 | 0.89 | 75 | 1002.4 |
| 20260505182957 | 12 | 321 | 3.2 | 8.0 | 0.20 | 0.56 | 0.89 | 75 | 1002.4 |
| 20260505182857 | 12 | 309 | 3.2 | 8.0 | 0.18 | 0.53 | 0.86 | 75 | 1002.4 |
| 20260505182756 | 12 | 309 | 3.2 | 8.0 | 0.18 | 0.53 | 0.86 | 75 | 1002.4 |
| 20260505182658 | 12 | 302 | 3.2 | 8.0 | 0.18 | 0.53 | 0.86 | 75 | 1002.5 |
| 20260505182556 | 12 | 293 | 1.6 | 8.0 | 0.18 | 0.53 | 0.86 | 75 | 1002.4 |
| 20260505182456 | 12 | 298 | 1.6 | 8.0 | 0.18 | 0.53 | 0.86 | 75 | 1002.4 |
| 20260505182357 | 12 | 347 | 3.2 | 8.0 | 0.18 | 0.53 | 0.86 | 75 | 1002.5 |
| 20260505182257 | 12 | 1 | 3.2 | 8.0 | 0.18 | 0.53 | 0.86 | 75 | 1002.3 |
| 20260505182157 | 12 | 13 | 3.2 | 8.0 | 0.15 | 0.51 | 0.84 | 75 | 1002.4 |
| 20260505182057 | 12 | 359 | 3.2 | 6.4 | 0.15 | 0.51 | 0.84 | 75 | 1002.6 |
| 20260505181856 | 12 | 35 | 0.0 | 3.2 | 0.18 | 0.51 | 0.84 | 75 | 1002.5 |
| 20260505181756 | 12 | 36 | 0.0 | 3.2 | 0.15 | 0.48 | 0.81 | 75 | 1002.5 |
| 20260505181558 | 12 | 50 | 0.0 | 3.2 | 0.15 | 0.48 | 0.81 | 75 | 1002.5 |
| 20260505181456 | 12 | 60 | 1.6 | 3.2 | 0.15 | 0.48 | 0.81 | 75 | 1002.3 |
| 20260505181356 | 12 | 71 | 0.0 | 3.2 | 0.15 | 0.48 | 0.81 | 75 | 1002.4 |
| 20260505181256 | 12 | 82 | 0.0 | 3.2 | 0.13 | 0.46 | 0.79 | 75 | 1002.4 |
| 20260505181156 | 12 | 90 | 1.6 | 3.2 | 0.13 | 0.46 | 0.79 | 75 | 1002.4 |
| 20260505181057 | 12 | 102 | 1.6 | 3.2 | 0.13 | 0.46 | 0.79 | 75 | 1002.4 |
| 20260505180956 | 12 | 111 | 3.2 | 3.2 | 0.13 | 0.46 | 0.79 | 75 | 1002.4 |
| 20260505180856 | 12 | 118 | 1.6 | 3.2 | 0.13 | 0.46 | 0.79 | 75 | 1002.5 |
| 20260505180656 | 12 | 133 | 1.6 | 3.2 | 0.10 | 0.43 | 0.76 | 75 | 1002.4 |
| 20260505180556 | 12 | 130 | 1.6 | 3.2 | 0.10 | 0.43 | 0.76 | 72 | 1002.5 |
| 20260505180456 | 12 | 120 | 1.6 | 3.2 | 0.10 | 0.43 | 0.76 | 72 | 1002.3 |
| 20260505180356 | 12 | 108 | 1.6 | 3.2 | 0.10 | 0.43 | 0.76 | 72 | 1002.5 |
| 20260505180157 | 12 | 53 | 1.6 | 6.4 | 0.10 | 0.43 | 0.76 | 72 | 1002.4 |
| 20260505180056 | 12 | 27 | 1.6 | 6.4 | 0.10 | 0.43 | 0.76 | 72 | 1002.4 |
| 20260505175956 | 12 | 22 | 1.6 | 6.4 | 0.10 | 0.43 | 0.76 | 72 | 1002.3 |
| 20260505175856 | 12 | 21 | 1.6 | 6.4 | 0.10 | 0.43 | 0.76 | 72 | 1002.3 |
| 20260505175556 | 12 | 28 | 1.6 | 6.4 | 0.13 | 0.43 | 0.76 | 72 | 1002.3 |
| 20260505175456 | 12 | 22 | 1.6 | 6.4 | 0.13 | 0.43 | 0.76 | 72 | 1002.4 |
| 20260505175356 | 12 | 15 | 1.6 | 6.4 | 0.10 | 0.38 | 0.71 | 72 | 1002.3 |